Weather History for Iranshahr, Iran

Change the Weather History Date:

Monday, May 7, 2012

  Actual Average Record
Temperature  
Mean Temperature 94 °F -  
Max Temperature 107 °F 108 °F - ()
Min Temperature 82 °F 78 °F - ()
Cooling Degree Days 30    
Growing Degree Days 44 (Base 50)    
Moisture  
Dew Point 42 °F    
Average Humidity 14    
Maximum Humidity 25    
Minimum Humidity 4    
Precipitation  
Precipitation 0.00 in 0.00 in - ()
Sea Level Pressure  
Sea Level Pressure 29.71 in    
Wind  
Wind Speed 4 mph ()    
Max Wind Speed 12 mph    
Max Gust Speed -    
Visibility 3.1 miles    
Events      
T = Trace of Precipitation, MM = Missing Value Source: Averaged Metar Reports

Daily Weather History Graph

Daily Weather History Graph

Search for Another Location

Airport:

Trip Planner

Search our weather history database for the weather conditions in past years. The results will help you decide how hot, cold, wet, or windy it might be!

Date:

Astronomy

May. 07, 2012 Rise Set
Actual Time 5:43 AM IRDT 7:03 PM IRDT
Civil Twilight 5:18 AM IRDT 7:28 PM IRDT
Nautical Twilight 4:49 AM IRDT 7:58 PM IRDT
Astronomical Twilight 4:18 AM IRDT 8:29 PM IRDT
Moon 8:40 PM IRDT (5/7) 6:31 AM IRDT (5/7)
Length of Visible Light 14h 09m
Length of Day
13h 20m
Full, 98% of the Moon is Illuminated
May 7
Full
May 13
Last Quarter
May 21
New
May 29
First Quarter
Jun 4
Full

Hourly Weather History & Observations

Time (IRDT) Temp. Dew Point Humidity Pressure Visibility Wind Dir Wind Speed Gust Speed Precip Events Conditions
12:30 AM 93.2 °F 51.8 °F 24% 29.74 in 2.5 mi West 4.6 mph - N/A   Haze
1:30 AM 91.4 °F 41.0 °F 17% 29.74 in 1.9 mi WNW 4.6 mph - N/A   Haze
4:30 AM 84 °F 44 °F 15% 29.59 in 2 mi Calm Calm - -   Haze
4:30 AM 84.2 °F 44.6 °F 25% 29.74 in 1.9 mi Calm Calm - N/A   Haze
6:30 AM 82.4 °F 39.2 °F 21% 29.77 in 1.9 mi Calm Calm - N/A   Haze
7:30 AM 86.0 °F 39.2 °F 19% 29.77 in 2.5 mi North 4.6 mph - N/A   Haze
9:30 AM 95.0 °F 41.0 °F 15% 29.80 in - North 4.6 mph - N/A   Haze
10:30 AM 98 °F 43 °F 8% 29.65 in 3 mi NNE 4.5 mph - -   Haze
10:30 AM 98.6 °F 42.8 °F 15% 29.80 in 3.1 mi NNE 4.6 mph - N/A   Haze
11:30 AM 100.4 °F 46.4 °F 16% 29.80 in 3.1 mi SSW 4.6 mph - N/A   Haze
12:30 PM 104.0 °F 44.6 °F 13% 29.80 in 3.1 mi SSW 4.6 mph - N/A   Haze
1:30 PM 104.0 °F 46.4 °F 14% 29.74 in 3.1 mi South 4.6 mph - N/A   Haze
2:30 PM 105.8 °F 39.2 °F 10% 29.71 in 3.7 mi SSE 4.6 mph - N/A   Partly Cloudy
3:30 PM 107.6 °F 39.2 °F 10% 29.68 in 3.7 mi SSW 6.9 mph - N/A   Partly Cloudy
4:30 PM 107 °F 36 °F 4% 29.52 in 4 mi SW 4.5 mph - -   Haze
4:30 PM 107.6 °F 35.6 °F 8% 29.68 in 3.7 mi SW 4.6 mph - N/A   Partly Cloudy
5:30 PM 107.6 °F 33.8 °F 8% 29.65 in 3.7 mi WSW 9.2 mph - N/A   Partly Cloudy
6:30 PM 105.8 °F 32.0 °F 8% 29.65 in 3.7 mi SW 11.5 mph - N/A   Partly Cloudy
7:30 PM 102.2 °F 41.0 °F 12% 29.68 in 3.1 mi SSW 9.2 mph - N/A   Haze
8:30 PM 98.6 °F 41.0 °F 14% 29.71 in 3.1 mi SSW 4.6 mph - N/A   Haze
9:30 PM 95.0 °F 41.0 °F 15% 29.71 in 3.7 mi WSW 4.6 mph - N/A   Partly Cloudy
10:30 PM 93 °F 42 °F 9% 29.59 in 4 mi NNE 4.5 mph - -   Haze
10:30 PM 93.2 °F 42.8 °F 17% 29.74 in 3.7 mi NNE 4.6 mph - N/A   Unknown
11:30 PM 93.2 °F 50.0 °F 23% 29.77 in 3.7 mi NW 4.6 mph - N/A   Unknown